www.pogodaiklimat.ru

Погода и климат >> Архив погоды >> Антарктида >> SANAE


ПОГОДА в SANAE

  • Прогноз погоды в SANAE
  • Монитор погоды в SANAE
  • Климат города

АРХИВ ПОГОДЫ в SANAE

Время (UTC), дата Ветер
(напр.,м/с)
 
Видим.   Явления Облачность Т
(С)
Тd
(С)
f
(%)
Тe
(С)
Тes
(С)
Комфортность P
(гПа)
Po
(гПа)
Тmin
(С)
Tmax
(С)
R
(мм)
R24
(мм)
S
(см)
06 14.05 В 26 <100 м сильный снег 10/0 300 м
[As op]
-8.3 -10.0 88 -23 -23 977.7 877.1 -10.2
09 14.05 В 28 <100 м сильный снег 10/0 300 м
[As op]
-8.2 -9.9 88 -23 -23 978.0 877.4 -10.2 -8.0
12 14.05 В 31 <100 м сильный снег 10/0 300 м
[As op]
-8.7 -10.4 87 -24 -24 979.0 878.1 -10.2 -7.0
15 14.05 В 30 н/о н/о -9.5 -11.2 87 -25 -25 980.9 879.6 -9.9 -6.9
18 14.05 В 27 <100 м сильный снег 10/0 300 м
[As op]
-10.2 -11.9 87 -26 -26 983.0 881.2 -10.8 -6.9
21 14.05 В 29 н/о н/о -11.5 -13.2 87 -28 -28 984.7 882.2 -11.8 -7.0
00 15.05 В 26 н/о н/о -12.4 -14.1 87 -28 -28 987.7 884.6 -12.6 -7.0
03 15.05 В 23 н/о н/о -13.3 -15.0 87 -29 -29 989.9 886.2 -13.5 -7.0
06 15.05 В 23 100 м снег 10/0 300 м
[As op]
-14.1 -15.8 87 -30 -30 991.3 887.2 -14.1
09 15.05 В 20 >70 км метель {снег} 4/4 300 м
[Sc]
-14.8 -16.5 87 -30 -30 993.3 888.7 -14.9 -13.7
12 15.05 В 19 >70 км метель 1/1 300 м
[Sc]
-15.9 -17.5 87 -32 -32 опасность
обморожения
993.7 888.7 -16.3 -13.7
15 15.05 В 15 н/о н/о -15.7 -17.3 87 -30 -30 994.4 889.4 -16.4 -13.7
18 15.05 В 15 >70 км позёмок {метель} 3/3 300 м
[Sc]
-17.4 -19.0 87 -32 -32 опасность
обморожения
995.5 889.7 -17.6 -13.7
21 15.05 В 19 н/о н/о -17.6 -19.2 87 -34 -34 опасность
обморожения
994.7 888.9 -18.2 -13.7
00 16.05 В 9 н/о н/о -18.0 -19.6 87 -30 -30 998.0 891.7 -18.3 -13.7
03 16.05 ЮВ 10 н/о н/о -19.0 -20.6 87 -32 -32 опасность
обморожения
998.3 891.6 -19.7 -13.7
06 16.05 В 11 >70 км позёмок {метель} 3/3 300 м
[Sc]
-18.9 -20.5 87 -33 -33 опасность
обморожения
996.7 890.2 -20.2
09 16.05 ЮВ 10 >70 км позёмок {метель} 4/4 600 м
[Sc]
-19.9 997.5 890.5 -21.4 -18.5
12 16.05 ЮВ 13 >70 км метель 6/5 600 м
[Sc Ac As]
-18.2 994.8 888.8 -21.9
15 16.05 В 15 н/о н/о -18.5 992.9 887.0 -19.2
18 16.05 ЮВ 11 >70 км 5/5 600 м
[Sc Ac As]
-20.0 992.9 886.4 -20.0
21 16.05 ЮВ 10 н/о н/о -19.3 -23.1 72 -33 -33 опасность
обморожения
991.5 885.4 -20.1
00 17.05 ЮВ 7 н/о н/о -18.5 -23.5 65 -30 -30 990.2 884.5 -20.1
03 17.05 ЮВ 6 н/о н/о -17.1 -23.3 58 -27 -27 988.0 883.1 -20.1
06 17.05 ЮВ 7 >70 км 4/3 600 м
[Sc]
-17.6 -23.6 59 -29 -29 988.7 883.5 -20.1
09 17.05 В 8 >70 км 3/3 600 м
[Sc]
-19.8 -23.9 70 -32 -32 опасность
обморожения
991.3 885.0 -20.1 -17.2
12 17.05 В 13 >70 км позёмок {метель} 3/3 600 м
[Sc]
-22.8 994.1 886.3 -23.1 -17.2
15 17.05 В 14 н/о н/о -23.1 996.0 887.9 -23.7 -17.2
18 17.05 В 10 >70 км 1/1 600 м
[Sc]
-23.7 997.1 888.6 -24.4 -17.2
21 17.05 В 7 н/о н/о -23.4 997.1 888.8 -24.4 -17.2
00 18.05 ЮВ 7 н/о н/о -22.9 996.7 888.6 -24.4 -17.2
03 18.05 ЮВ 8 н/о н/о -22.9 995.1 887.2 -24.4 -17.2
06 18.05 ЮВ 9 >70 км позёмок {метель} 3/3 600 м
[Sc]
-22.3 993.3 885.8 -24.4
09 18.05 В 13 >70 км позёмок {метель} 3/3 600 м
[Sc]
-23.3 991.8 884.1 -25.2 -21.7
12 18.05 В 13 н/о н/о -21.9 991.2 884.1 -25.2 -21.7
15 18.05 В 13 н/о н/о -23.1 991.2 883.6 -23.4 -21.6
18 18.05 В 14 >70 км позёмок {метель} 3/3 600 м
[Sc]
-23.4 993.0 885.1 -23.5 -21.6
21 18.05 В 15 н/о н/о -22.6 994.5 886.8 -23.5 -21.6
00 19.05 В 8 н/о н/о -23.4 999.1 890.5 -23.6 -21.0
03 19.05 В 9 н/о н/о -21.8 999.8 891.8 -23.7 -21.0
06 19.05 В 11 н/о н/о -24.8 1001.4 892.0 -25.1
09 19.05 В 9 н/о н/о -25.3 1003.9 894.0 -25.7 -24.1
12 19.05 В 7 н/о н/о -25.3 1005.1 895.1 -26.6 -24.1
15 19.05 В 7 н/о н/о -25.8 1005.4 895.2 -26.4
18 19.05 В 4 >70 км 3/3 600 м
[Sc]
-25.5 1006.8 896.5 -27.1
21 19.05 ЮВ 5 н/о н/о -25.2 1006.8 896.7 -27.1
00 20.05 ЮВ 5 н/о н/о -26.1 1006.9 896.4 -27.1
03 20.05 ЮВ 7 н/о н/о -27.0 1006.6 895.7 -27.2
06 20.05 ЮВ 10 н/о н/о -28.4 1005.4 894.1 -29.1
12 20.05 ЮВ 12 >70 км позёмок {метель} ясно -25.5 1002.7 892.9 -29.1 -24.2
15 20.05 ЮВ 12 н/о н/о -26.0 1003.1 893.0 -26.1 -23.9
18 20.05 ЮВ 11 >70 км позёмок {метель} 1/1 600 м
[Sc]
-26.0 1004.1 893.9 -26.2 -23.9
21 20.05 ЮВ 11 н/о н/о -24.6 1003.3 893.8 -26.6 -23.9
00 21.05 ЮВ 11 н/о н/о -25.6 1004.2 894.2 -26.6 -23.9

 

Местоположение метеостанции SANAE (Антарктида): широта -71.70 долгота -2.80 высота над уровнем моря 817 м.

В архиве по умолчанию представлена погода в SANAE за последнюю неделю. Архивные данные за месяц целиком и за предыдущие месяцы, начиная с января 2011 года, Вы можете получить, выбрав интересующий диапазон дат из раскрывающегося списка и нажав кнопку "Ввод!".


*Определитесь, кто Вы:
робот инопланетянин человек

Внимание! Время в таблицах - всемирное. Для получения местного времени необходимо прибавить поправку, которая в SANAE равна 0 ч.

Смотрите также архив погоды в соседних городах и на ближайших метеорологических станциях:

Погода в Troll (Антарктида) (183 км)
Погода в Neumayer Station (Антарктида) (227 км)
Погода в Soerasen (Антарктида) (257 км)
Погода в Kohnen Ep9 (Антарктида) (378 км)
Погода в Nordenskiold Base (Антарктида) (386 км)
Погода в Maitri (Антарктида) (530 км)
Погода в Novolazarevskaja (Антарктида) (532 км)
Погода в Halley (Антарктида) (851 км)
Погода в Base Belgrano Ii (Антарктида) (1130 км)
Погода в Relay Station (Антарктида) (1487 км)

Пояснения к столбцам:

Ветер - указаны скорость ветра в м/с - средняя за 10 мин, порывы в срок и между сроками (в фигурных скобках) и направление, откуда дует ветер: С - северный, СВ - северо-восточный, В - восточный, ЮВ - юго-восточный, Ю - южный, ЮЗ - юго-западный, З - западный, СЗ - северо-западный.
Видимость - горизонтальная дальность видимости в метрах или километрах. При видимости от 1 до 10 км при отсутствии осадков обычно наблюдается дымка, при ухудшении видимости до 1 км и менее - туман. В сухую погоду видимость может ухудшаться дымом, пылью или мглою.
Явления - указаны атмосферные явления, наблюдавшиеся в срок или в последний час перед сроком; фигурными скобками обозначены явления, наблюдавшиеся между сроками (за 1-3 часа до срока); квадратными скобками обозначены град или гололедные отложения с указанием их диаметра в мм.
Облачность - указаны через наклонную черту общая и нижняя облачность в баллах и высота нижней границы облаков в метрах; квадратными скобками обозначены формы облаков: Ci - перистые, Cs - перисто-слоистые, Cc - перисто-кучевые, Ac - высококучевые, As - высокослоистые, Sc - слоисто-кучевые, Ns - слоисто-дождевые, Cu - кучевые, Cb - кучево-дождевые. Подробнее классификацию облаков см. в Атласе облаков (PDF).
T - Температура воздуха - температура, измеренная на высоте 2 м над землей.
Td - Температура точки росы - температура, при понижении до которой содержащийся в воздухе водяной пар достигнет насыщения.
f - Относительная влажность воздуха - влажноcть воздуха, измеренная на высоте 2 м над землей.
Te - Эффективная температура - температура, которую ощущает одетый по сезону человек в тени. Характеристика душности погоды. При расчете учитывается влияние влажности воздуха и скорости ветра на теплоощущения человека.
Tes - Эффективная температура на солнце - температура, которую ощущает человек, с поправкой на солнечный нагрев. Характеристика знойности погоды. Зависит от высоты солнца над горизонтом, облачности и скорости ветра. Ночью, в пасмурную погоду, а также при ветре 12 м/с и более поправка равна нулю.
P - Атмосферное давление - приведенное к уровню моря атмосферное давление.
Po - Атмосферное давление - измеренное на уровне метеостанции атмосферное давление.
Tmin - Минимальная температура - минимум температуры воздуха на высоте 2 м над землей.
Tmax - Максимальная температура - максимум температуры воздуха на высоте 2 м над землей.
R - Количество осадков - Количество выпавших осадков за период времени, мм. При наведении курсора мыши на число - период времени, за который выпало указанное количество осадков.
R24 - Количество осадков - Количество выпавших осадков за 24 часа, мм.
S - Снежный покров - Высота снежного покрова, см. При наведении курсора мыши на число - состояние снежного покрова и степень покрытия местности в баллах.